Wiscasset, ME

3:50 PM EDT on March 27, 2017 (GMT -0400)
Wiscasset

Weather History for KIWI - February, 2012

Change the Weather History Date:

Sunday, February 12, 2012

  Actual Average Record
Temperature  
Mean Temperature 12 °F -  
Max Temperature 19 °F 30 °F 48 °F (1999)
Min Temperature 5 °F 10 °F -8 °F (2003)
Degree Days  
Heating Degree Days 53    
Moisture  
Dew Point -5 °F    
Average Humidity 45    
Maximum Humidity 58    
Minimum Humidity 34    
Precipitation  
Precipitation 0.00 in - - ()
Sea Level Pressure  
Sea Level Pressure 29.66 in    
Wind  
Wind Speed 7 mph (NW)    
Max Wind Speed 12 mph    
Max Gust Speed 22 mph    
Visibility 10 miles    
Events      
Averages and records for this station are not official NWS values.
T = Trace of Precipitation, MM = Missing Value Source: NWS Daily Summary

Daily Weather History Graph

Daily Weather History Graph

Search for Another Location

Airport or City:

Trip Planner

Search our weather history database for the weather conditions in past years. The results will help you decide how hot, cold, wet, or windy it might be!

Date:

Astronomy

Feb. 12, 2012 Rise Set
Actual Time 6:42 AM EST 5:03 PM EST
Civil Twilight 6:13 AM EST 5:33 PM EST
Nautical Twilight 5:39 AM EST 6:07 PM EST
Astronomical Twilight 5:05 AM EST 6:41 PM EST
Moon 11:13 PM EST (2/12) 8:45 AM EST (2/12)
Length of Visible Light 11h 20m
Length of Day
10h 20m
Waning Gibbous, 72% of the Moon is Illuminated
Feb 12
Waning Gibbous
Feb 14
Last Quarter
Feb 21
New
Feb 29
First Quarter
Mar 8
Full

Hourly Weather History & Observations

Time (EST) Temp. Windchill Dew Point Humidity Pressure Visibility Wind Dir Wind Speed Gust Speed Precip Events Conditions
12:53 AM 19.9 °F 9.3 °F 3.9 °F 50% 29.54 in 10.0 mi North 9.2 mph - N/A   Clear
1:53 AM 19.0 °F 9.0 °F 3.9 °F 52% 29.55 in 10.0 mi North 8.1 mph 19.6 mph N/A   Clear
2:53 AM 18.0 °F 7.7 °F 1.9 °F 50% 29.57 in 10.0 mi NNW 8.1 mph - N/A   Clear
3:53 AM 15.1 °F 6.4 °F 1.9 °F 56% 29.57 in 10.0 mi Variable 5.8 mph - N/A   Clear
4:53 AM 14.0 °F 3.9 °F -0.9 °F 52% 29.58 in 10.0 mi Variable 6.9 mph - N/A   Clear
5:53 AM 12.0 °F 1.5 °F -2.9 °F 51% 29.59 in 10.0 mi Variable 6.9 mph - N/A   Clear
6:53 AM 10.9 °F 4.7 °F -7.1 °F 44% 29.62 in 10.0 mi Variable 3.5 mph - N/A   Clear
7:53 AM 12.0 °F 2.7 °F -8.0 °F 41% 29.63 in 10.0 mi Variable 5.8 mph - N/A   Clear
8:53 AM 12.9 °F -0.9 °F -6.0 °F 43% 29.64 in 10.0 mi NW 11.5 mph 21.9 mph N/A   Clear
9:53 AM 15.1 °F 3.3 °F -5.1 °F 41% 29.64 in 10.0 mi NW 9.2 mph 17.3 mph N/A   Clear
10:53 AM 18.0 °F 7.7 °F -4.0 °F 38% 29.63 in 10.0 mi NW 8.1 mph - N/A   Clear
11:53 AM 19.0 °F 10.0 °F -4.0 °F 36% 29.62 in 10.0 mi Variable 6.9 mph 17.3 mph N/A   Clear
12:53 PM 18.0 °F 6.9 °F -6.0 °F 35% 29.60 in 10.0 mi NW 9.2 mph 19.6 mph N/A   Clear
1:53 PM 17.1 °F 4.3 °F -6.0 °F 36% 29.60 in 10.0 mi NW 11.5 mph 20.7 mph N/A   Clear
2:53 PM 16.0 °F 5.3 °F -8.0 °F 34% 29.61 in 10.0 mi NW 8.1 mph 19.6 mph N/A   Clear
3:53 PM 15.1 °F 1.8 °F -8.0 °F 36% 29.63 in 10.0 mi NW 11.5 mph 21.9 mph N/A   Clear
4:53 PM 12.0 °F 1.5 °F -9.0 °F 39% 29.68 in 10.0 mi Variable 6.9 mph - N/A   Clear
5:53 PM 10.0 °F -3.7 °F -11.0 °F 38% 29.73 in 10.0 mi NW 10.4 mph 18.4 mph N/A   Clear
6:53 PM 8.1 °F -0.5 °F -9.9 °F 44% 29.77 in 10.0 mi Variable 4.6 mph - N/A   Clear
7:53 PM 7.0 °F 0.1 °F -11.0 °F 44% 29.81 in 10.0 mi Variable 3.5 mph - N/A   Clear
8:53 PM 7.0 °F - -11.0 °F 44% 29.83 in 10.0 mi Calm Calm - N/A   Clear
9:53 PM 5.0 °F - -9.0 °F 52% 29.83 in 8.0 mi Calm Calm - N/A   Clear
10:53 PM 5.0 °F - -7.1 °F 58% 29.83 in 10.0 mi Calm Calm - N/A   Clear
11:53 PM 6.1 °F - -7.1 °F 55% 29.83 in 10.0 mi Calm Calm - N/A   Mostly Cloudy